Vorticity
7 5 5 3 3 3 2 2 4 2 4 6 11 21 19 13 11 11 11 11 11 14 17 17 15 9 8 8 10 10 7 8 9
6 5 4 2 2 2 3 4 4 3 8 10 20 20 10 7 9 8 10 8 8 9 14 16 17 17 13 10 7 8 10 8 6
6 4 4 3 3 4 4 4 3 7 9 18 18 13 7 6 9 8 9 10 9 8 8 8 15 17 16 15 11 12 8 11 7
6 5 4 3 5 5 3 4 5 7 14 18 13 8 6 10 10 10 9 9 9 9 9 8 8 11 15 15 14 12 10 10 13
6 5 4 5 6 7 6 3 7 12 20 14 12 8 6 3 7 9 4 7 6 5 4 5 4 7 5 11 17 15 14 13 10
6 6 5 6 6 6 4 7 9 19 18 11 12 6 4 1 2 3 4 4 4 5 5 4 5 5 5 3 6 13 15 13 17
6 5 6 6 6 5 5 9 16 14 11 12 11 6 3 4 1 5 3 4 5 6 6 5 6 7 5 4 6 6 13 12 16
7 6 7 7 6 6 7 13 18 11 9 8 8 6 4 4 2 3 3 4 6 8 8 10 10 9 10 7 2 5 7 14 11
5 5 6 7 6 6 6 18 11 8 8 7 5 4 4 3 3 4 8 12 13 13 13 11 14 14 13 12 10 4 5 12 9
5 4 6 6 5 6 9 17 8 6 7 5 4 4 3 5 8 11 10 4 3 4 8 11 12 15 20 19 14 11 6 4 14
3 5 6 7 7 7 16 13 8 6 5 2 1 2 4 8 9 12 1 0 3 4 8 8 10 14 13 15 19 11 9 6 12
4 4 6 6 7 7 20 7 6 6 6 4 4 5 9 12 9 8 1 1 4 3 1 6 6 11 13 14 19 13 11 9 4
3 6 5 6 8 11 17 5 6 4 4 4 4 7 8 9 9 6 2 3 3 2 4 5 6 7 13 14 15 13 10 10 9
6 4 4 7 8 15 11 5 4 3 3 3 3 4 5 5 5 6 4 6 5 7 6 6 5 6 7 15 15 14 9 10 9
5 3 5 6 9 17 9 6 3 3 3 3 7 6 4 4 4 4 4 4 4 4 5 6 5 6 5 8 17 14 12 12 9
3 3 5 8 9 19 6 5 4 4 4 5 4 3 4 5 5 5 6 4 6 6 7 6 5 5 6 5 8 16 15 12 10
2 4 5 8 11 17 5 3 5 7 5 5 3 4 3 4 3 2 5 5 5 6 6 8 6 5 4 6 5 7 12 17 11
3 5 7 10 13 14 2 4 7 5 4 4 3 4 4 5 3 4 4 4 4 4 5 7 9 8 6 4 5 5 7 8 19
6 7 7 10 10 5 3 7 6 5 5 5 5 4 4 5 5 4 6 5 5 5 5 6 8 8 8 6 4 5 6 6 5
5 5 8 9 3 6 8 4 3 5 5 5 5 4 4 4 4 4 4 6 6 6 6 6 5 6 9 8 5 4 5 6 5
Height
5869 5867 5865 5863 5861 5859 5856 5853 5850 5847 5844 5840 5835 5831 5827 5824 5821 5819 5817 5815 5814 5812 5810 5809 5809 5809 5809 5809 5809 5809 5810 5811 5812
5866 5864 5862 5860 5858 5855 5852 5849 5846 5843 5839 5835 5830 5826 5823 5820 5818 5816 5814 5812 5810 5809 5807 5805 5804 5804 5803 5803 5803 5803 5803 5803 5804
5863 5861 5859 5857 5854 5852 5848 5845 5842 5838 5834 5829 5825 5823 5821 5818 5816 5814 5812 5809 5808 5806 5804 5802 5800 5799 5798 5797 5797 5797 5796 5797 5797
5859 5857 5855 5852 5850 5847 5844 5841 5838 5833 5829 5825 5822 5820 5818 5816 5814 5812 5809 5807 5805 5803 5800 5798 5797 5795 5794 5792 5791 5791 5790 5791 5792
5855 5853 5851 5849 5846 5844 5841 5838 5834 5829 5824 5821 5819 5817 5815 5814 5812 5810 5807 5804 5802 5799 5797 5794 5792 5791 5789 5787 5786 5784 5784 5784 5784
5852 5850 5848 5845 5843 5840 5837 5834 5829 5825 5821 5818 5816 5814 5812 5811 5809 5807 5805 5802 5798 5796 5793 5791 5789 5786 5784 5782 5780 5779 5778 5777 5777
5849 5847 5844 5842 5839 5836 5833 5830 5826 5822 5819 5816 5814 5812 5810 5808 5805 5803 5800 5798 5794 5792 5789 5786 5784 5782 5779 5776 5775 5773 5772 5771 5771
5846 5843 5841 5838 5835 5832 5829 5825 5821 5818 5816 5814 5812 5810 5808 5806 5802 5799 5796 5793 5790 5787 5784 5781 5778 5775 5773 5771 5770 5768 5766 5765 5765
5842 5840 5837 5834 5831 5828 5825 5822 5819 5816 5813 5811 5808 5807 5804 5802 5800 5795 5792 5790 5786 5783 5780 5776 5773 5769 5766 5764 5762 5762 5761 5760 5759
5838 5835 5833 5830 5827 5824 5821 5818 5815 5812 5809 5807 5805 5803 5800 5797 5796 5792 5789 5786 5783 5779 5775 5771 5767 5763 5759 5757 5756 5756 5756 5755 5754
5834 5831 5829 5826 5823 5820 5817 5814 5811 5809 5806 5803 5801 5798 5796 5793 5790 5787 5784 5782 5778 5775 5771 5767 5763 5758 5754 5751 5750 5750 5750 5750 5750
5829 5827 5824 5821 5818 5815 5812 5810 5807 5804 5802 5800 5797 5794 5791 5788 5785 5783 5780 5777 5774 5771 5767 5763 5759 5754 5751 5747 5744 5744 5744 5745 5745
5824 5822 5819 5816 5813 5810 5807 5805 5802 5800 5797 5794 5792 5788 5786 5783 5781 5779 5776 5774 5771 5767 5763 5759 5755 5751 5746 5743 5740 5739 5738 5738 5738
5819 5816 5813 5810 5807 5804 5801 5799 5797 5794 5792 5789 5786 5784 5782 5779 5776 5773 5770 5768 5764 5761 5758 5754 5750 5747 5743 5739 5736 5734 5733 5732 5732
5813 5810 5807 5803 5800 5797 5795 5793 5790 5788 5785 5783 5780 5778 5775 5772 5770 5767 5764 5761 5758 5754 5752 5749 5744 5741 5737 5735 5731 5728 5727 5725 5725
5805 5802 5799 5797 5793 5790 5788 5785 5783 5780 5778 5776 5774 5770 5767 5764 5762 5759 5757 5754 5751 5748 5745 5742 5739 5736 5732 5729 5726 5723 5721 5720 5718
5797 5795 5792 5789 5786 5783 5780 5778 5776 5774 5771 5768 5765 5763 5761 5757 5754 5751 5748 5745 5742 5739 5736 5733 5731 5728 5726 5723 5720 5718 5716 5713 5712
5789 5787 5784 5780 5777 5774 5772 5770 5767 5764 5761 5759 5756 5753 5751 5748 5744 5741 5738 5736 5733 5730 5727 5725 5723 5720 5718 5715 5713 5710 5708 5707 5705
5781 5778 5774 5771 5768 5765 5762 5759 5757 5754 5751 5749 5746 5743 5740 5738 5735 5731 5728 5724 5721 5719 5716 5715 5712 5710 5708 5706 5704 5702 5701 5699 5697
5771 5767 5764 5761 5758 5755 5752 5749 5746 5743 5740 5737 5733 5730 5727 5725 5722 5719 5715 5710 5707 5706 5704 5702 5701 5699 5697 5695 5693 5692 5691 5689 5689